Погода в Челябинске

Россия / Челябинская область     55°09′35″N   61°24′09″E
темп.,
°C
ветер,
м/с
пор.,
м/с
влажн.,
%
обл.,
%
осадки,
мм/ч
давл.,
гПа
погр.,
м
29 июля, чт
чт2923:00+12зсз37566 0.0 1013247
02:00+11зюз246387 0.0 101280
05:00+12з37595 0.0 1012236
08:00+14зсз475964 0.0 1012452
11:00+18зсз584434 0.0 10121779
14:00+21сз583417 0.0 10112556
17:00+23сз583052 0.0 10102709
20:00+20зсз374425 0.0 1010405
30 июля, пт
пт3023:00+18юз374691 0.0 1010174
02:00+15юз485362 0.0 1010153
05:00+14юз41055100 0.0 1009199
08:00+17юз51147100 0.0 1009326
11:00+17юз41160100 0.1 1008507
14:00+18юз51266100 0.0 1006714
17:00+17юз3690100 3.1 1005152
20:00+17зюз119275 2.1 100535
31 июля, сб
сб3123:00+16зсз379524 2.1 1006220
02:00+15зюз37960 0.0 1007155
05:00+15зюз389635 0.0 1008169
08:00+19зюз3885100 0.0 1009259
11:00+24з4657100 0.0 1009887
14:00+27з3541100 0.1 10082114
17:00+24ююз255595 0.1 1008122
20:00+24ююз375663 0.0 1008195
1 августа, вс
вс123:00+21юз51466100 0.0 1008546
02:00+20зюз51279100 0.1 1007434
05:00+19зюз3790100 0.5 1007220
08:00+18зюз399392 0.5 1008292
11:00+25зсз465812 0.6 10081137
14:00+27зсз4745100 0.1 10082201
17:00+25зсз685169 0.1 10091042
20:00+23з375212 0.0 1009256
2 августа, пн
пн223:00+21зсз236096 0.0 101076
02:00+19зсз486464 0.0 1011185
05:00+17зсз387298 0.0 1011162
08:00+21зсз596089 0.0 1012472
11:00+25зсз584410 0.0 10121461
14:00+28сз68386 0.0 10122110
17:00+27сз46448 0.0 10121653
20:00+23с226326 0.3 101242